DW9920 Weather Reports


time (UTC)temp
F
wind
direction
speed
knots
gust
knots
rain 1hr
in
rain 24hr
in
rain mn
in
humidity
%
barometer
mb
20260507151506 52 30 1.7 2.6 0.00 0.00 0.00 74 1009.4
20260507150002 52 53 1.7 4.3 0.00 0.00 0.00 71 1009.5
20260507144603 51 324 0.9 3.5 0.00 0.00 0.00 71 1009.7
20260507143112 51 342 0.0 3.5 0.00 0.00 0.00 60 1009.7
20260507141631 50 67 0.0 3.5 0.00 0.00 0.00 59 1009.6
20260507140054 50 300 0.0 0.9 0.00 0.00 0.00 54 1009.8
20260507134554 49 4 0.0 1.7 0.00 0.00 0.00 42 1009.8
20260507133049 48 333 0.0 0.9 0.00 0.00 0.00 37 1009.9
20260507131548 48 293 0.0 0.9 0.00 0.00 0.00 34 1009.9
20260507130047 47 170 0.0 0.9 0.00 0.00 0.00 34 1009.8
20260507124546 47 156 0.0 0.9 0.00 0.00 0.00 34 1009.6
20260507123048 47 350 0.0 0.9 0.00 0.00 0.00 33 1009.7
20260507121546 47 350 0.0 0.0 0.00 0.00 0.00 32 1009.8
20260507120053 47 353 0.0 1.7 0.00 0.00 0.00 33 1010.0
20260507114544 47 168 0.0 0.0 0.00 0.00 0.00 32 1009.7
20260507113047 46 181 0.0 0.9 0.00 0.00 0.00 32 1009.4
20260507111541 46 315 0.0 0.9 0.00 0.00 0.00 33 1009.2
20260507110040 46 37 0.0 2.6 0.00 0.00 0.00 33 1009.1
20260507104539 46 88 0.0 0.9 0.00 0.00 0.00 33 1008.9
20260507103038 46 29 0.0 3.5 0.00 0.00 0.00 32 1008.9
20260507101537 47 315 1.7 2.6 0.00 0.00 0.00 32 1009.0
20260507100037 47 274 0.0 2.6 0.00 0.00 0.00 32 1009.1
20260507094534 47 313 0.9 4.3 0.00 0.00 0.00 32 1008.8
20260507093030 48 329 1.7 4.3 0.00 0.00 0.00 30 1008.6
20260507091528 48 342 0.0 7.8 0.00 0.00 0.00 29 1008.3
20260507090023 50 15 1.7 5.2 0.00 0.00 0.00 27 1008.6
20260507084523 50 326 0.0 0.0 0.00 0.00 0.00 26 1008.4
20260507083022 50 326 0.0 0.0 0.00 0.00 0.00 27 1008.6
20260507081525 50 329 0.0 0.0 0.00 0.00 0.00 27 1008.2
20260507080020 50 35 0.0 1.7 0.00 0.00 0.00 26 1008.3
20260507074528 50 345 0.0 0.0 0.00 0.00 0.00 26 1008.3
20260507073018 50 347 0.0 0.9 0.00 0.00 0.00 26 1008.3
20260507071517 50 308 0.0 1.7 0.00 0.00 0.00 26 1008.3
20260507070015 50 101 0.0 0.9 0.00 0.00 0.00 26 1008.6
20260507064513 50 104 0.0 0.0 0.00 0.00 0.00 26 1008.6
20260507063013 50 355 0.0 0.0 0.00 0.00 0.00 26 1009.0
20260507061512 50 342 0.0 1.7 0.00 0.00 0.00 26 1009.1
20260507060013 50 15 0.0 3.5 0.00 0.00 0.00 26 1009.1
20260507054510 50 30 0.0 0.9 0.00 0.00 0.00 25 1008.8
20260507053010 50 266 0.0 0.0 0.00 0.00 0.00 26 1009.2
20260507051507 50 307 0.0 0.9 0.00 0.00 0.00 26 1008.6
20260507050006 51 11 0.9 2.6 0.00 0.00 0.00 25 1008.7
20260507044508 51 307 0.0 1.7 0.00 0.00 0.00 25 1008.5
20260507043003 51 186 0.0 1.7 0.00 0.00 0.00 25 1009.0
20260507041502 51 283 0.0 2.6 0.00 0.00 0.00 25 1008.5
20260507040108 51 118 0.0 1.7 0.00 0.00 0.00 25 1008.8
20260507034619 51 20 0.0 3.5 0.00 0.00 0.00 24 1009.7
20260507033106 52 316 1.7 3.5 0.00 0.00 0.00 24 1009.3
20260507031553 52 313 2.6 6.1 0.00 0.00 0.00 23 1008.8
20260507030051 53 232 0.0 0.9 0.00 0.00 0.00 23 1007.9
20260507024557 53 139 0.0 1.7 0.00 0.00 0.00 23 1007.4
20260507023049 53 136 0.0 1.7 0.00 0.00 0.00 23 1007.9
20260507021555 53 5 0.0 0.9 0.00 0.00 0.00 23 1008.4
20260507020046 53 118 0.0 0.9 0.00 0.00 0.00 23 1009.0
20260507014547 53 127 0.0 1.7 0.00 0.00 0.00 23 1009.5
20260507013045 53 172 0.0 2.6 0.00 0.00 0.00 23 1009.0
20260507011544 53 194 0.9 4.3 0.00 0.00 0.00 23 1008.8
20260507010042 53 178 0.0 0.0 0.00 0.00 0.00 22 1008.4
20260507004539 54 15 0.0 2.6 0.00 0.00 0.00 22 1008.1
20260507003037 54 347 1.7 3.5 0.00 0.00 0.00 22 1008.2
20260507001556 54 117 0.0 2.6 0.00 0.00 0.00 22 1006.7
20260507000033 55 105 0.0 1.7 0.00 0.00 0.00 21 1006.8
20260506234545 55 77 0.9 3.5 0.00 0.00 0.00 21 1007.3
20260506233029 55 134 1.7 3.5 0.00 0.00 0.00 21 1007.1
20260506231532 56 193 0.0 4.3 0.00 0.00 0.00 21 1007.3
20260506230027 56 145 0.0 1.7 0.00 0.00 0.00 20 1007.1
20260506224529 56 110 0.0 0.9 0.00 0.00 0.00 20 1006.9
20260506223025 56 252 0.0 1.7 0.00 0.00 0.00 19 1007.1
20260506221524 58 256 0.0 1.7 0.00 0.00 0.00 18 1007.0
20260506220032 59 333 0.0 3.5 0.00 0.00 0.00 17 1006.4
20260506214522 59 352 0.9 1.7 0.00 0.00 0.00 17 1006.5
20260506213021 59 176 0.0 4.3 0.00 0.00 0.00 18 1006.6
20260506211523 58 225 0.0 0.9 0.00 0.00 0.00 18 1006.5
20260506210019 58 29 0.9 7.8 0.00 0.00 0.00 19 1006.4
20260506204519 60 29 2.6 8.7 0.00 0.00 0.00 16 1006.6
20260506203018 63 342 2.6 7.0 0.00 0.00 0.00 13 1006.1
20260506201518 63 304 0.0 3.5 0.00 0.00 0.00 13 1006.0
20260506200017 63 167 0.0 1.7 0.00 0.00 0.00 13 1006.0
20260506194523 64 126 0.0 0.9 0.00 0.00 0.00 12 1006.0
20260506193014 64 201 0.0 0.9 0.00 0.00 0.00 12 1006.0
20260506191514 63 233 0.0 0.9 0.00 0.00 0.00 13 1005.9
20260506190012 63 224 0.0 0.9 0.00 0.00 0.00 14 1005.7
20260506184512 63 217 0.0 0.0 0.00 0.00 0.00 14 1005.9
20260506183010 63 155 0.0 0.9 0.00 0.00 0.00 14 1005.8
20260506181510 63 139 0.0 2.6 0.00 0.00 0.00 14 1005.8
20260506180009 63 253 0.0 0.9 0.00 0.00 0.00 14 1005.9
20260506174509 63 174 0.0 0.9 0.00 0.00 0.00 14 1005.9
20260506173009 63 240 0.0 2.6 0.00 0.00 0.00 15 1005.9
20260506171508 62 163 0.9 3.5 0.00 0.00 0.00 16 1006.0
20260506170006 61 143 0.0 2.6 0.00 0.00 0.00 17 1006.2
20260506164510 60 129 0.0 0.9 0.00 0.00 0.00 18 1006.3
20260506163006 60 195 0.0 1.7 0.00 0.00 0.00 18 1006.3
20260506161504 60 203 0.0 0.9 0.00 0.00 0.00 19 1006.3
20260506160002 60 117 1.7 4.3 0.00 0.00 0.00 19 1005.9
20260506154505 59 226 0.0 3.5 0.00 0.00 0.00 19 1006.3
20260506153001 59 147 0.0 3.5 0.00 0.00 0.00 20 1006.3